KLM49W EHAM-EHEH

Flight info

Callsign KLM49W
Flight time 0h 18m
Altitude 7000
Route LOPIK
Aircraft B738/M-SDE2E3FGHIRWXY/LB1

Departure

Time 2026-05-04 00:44
Airport Amsterdam Airport Schiphol (EHAM)

Arrival

Time 2026-05-04 01:02
Airport Eindhoven Airport (EHEH)
Time Latitude Longitude Altitude Speed Heading
2026-05-04 00:22 52.30475 4.76574 -3 ft 0 kts 55°
2026-05-04 00:34 52.30471 4.76566 -3 ft 2 kts 55°
2026-05-04 00:34 52.30463 4.76542 -3 ft 3 kts 68°
2026-05-04 00:34 52.30458 4.76511 -3 ft 3 kts 86°
2026-05-04 00:34 52.30460 4.76478 -3 ft 3 kts 105°
2026-05-04 00:35 52.30469 4.76447 -3 ft 3 kts 122°
2026-05-04 00:35 52.30481 4.76421 -3 ft 3 kts 136°
2026-05-04 00:35 52.30493 4.76405 -3 ft 0 kts 144°
2026-05-04 00:37 52.30478 4.76411 -3 ft 7 kts 172°
2026-05-04 00:37 52.30406 4.76461 -3 ft 15 kts 148°
2026-05-04 00:37 52.30336 4.76515 -3 ft 4 kts 158°
2026-05-04 00:38 52.30314 4.76548 -3 ft 11 kts 102°
2026-05-04 00:38 52.30386 4.76754 -3 ft 31 kts 65°
2026-05-04 00:38 52.30489 4.77043 -3 ft 27 kts 60°
2026-05-04 00:38 52.30467 4.77210 -3 ft 20 kts 118°
2026-05-04 00:39 52.30513 4.77373 -3 ft 17 kts 52°
2026-05-04 00:39 52.30554 4.77460 -3 ft 0 kts 57°
2026-05-04 00:40 52.30554 4.77461 -3 ft 2 kts 57°
2026-05-04 00:40 52.30539 4.77580 -3 ft 14 kts 161°
2026-05-04 00:40 52.30505 4.77604 -3 ft 0 kts 156°
2026-05-04 00:41 52.30504 4.77604 -3 ft 0 kts 156°
2026-05-04 00:41 52.30500 4.77608 -3 ft 5 kts 154°
2026-05-04 00:42 52.30446 4.77663 -3 ft 6 kts 155°
2026-05-04 00:42 52.30419 4.77650 -3 ft 0 kts 234°
2026-05-04 00:43 52.30417 4.77645 -3 ft 5 kts 238°
2026-05-04 00:43 52.30385 4.77563 -3 ft 23 kts 238°
2026-05-04 00:43 52.30080 4.76765 -3 ft 101 kts 238°
2026-05-04 00:43 52.29611 4.75543 -1 ft 151 kts 238°
2026-05-04 00:44 52.29039 4.74053 496 ft 153 kts 238°
2026-05-04 00:44 52.28475 4.72584 1130 ft 157 kts 238°
2026-05-04 00:44 52.27881 4.71043 1682 ft 166 kts 238°
2026-05-04 00:44 52.27044 4.69498 2079 ft 199 kts 215°
2026-05-04 00:45 52.26171 4.68911 2497 ft 211 kts 193°
2026-05-04 00:45 52.24186 4.69350 3393 ft 229 kts 153°
2026-05-04 00:45 52.23321 4.70372 3980 ft 233 kts 136°
2026-05-04 00:45 52.22360 4.72569 4641 ft 244 kts 118°
2026-05-04 00:46 52.21470 4.74965 4950 ft 248 kts 121°
2026-05-04 00:46 52.20563 4.77431 5080 ft 264 kts 120°
2026-05-04 00:46 52.19630 4.80099 5089 ft 275 kts 119°
2026-05-04 00:46 52.18670 4.82850 5083 ft 281 kts 119°
2026-05-04 00:47 52.17699 4.85621 5191 ft 285 kts 119°
2026-05-04 00:47 52.16702 4.88465 6025 ft 292 kts 120°
2026-05-04 00:47 52.15543 4.91138 6592 ft 292 kts 134°
2026-05-04 00:47 52.14043 4.93320 6907 ft 290 kts 147°
2026-05-04 00:48 52.12356 4.95091 6988 ft 286 kts 153°
2026-05-04 00:48 52.10629 4.96672 6992 ft 281 kts 155°
2026-05-04 00:48 52.08932 4.98201 6994 ft 277 kts 154°
2026-05-04 00:48 52.07253 4.99732 6996 ft 275 kts 154°
2026-05-04 00:49 52.05587 5.01263 6997 ft 275 kts 154°
2026-05-04 00:49 52.03918 5.02807 6997 ft 275 kts 154°
2026-05-04 00:49 52.02302 5.04307 6997 ft 275 kts 154°
2026-05-04 00:49 52.00599 5.05894 6997 ft 275 kts 154°
2026-05-04 00:50 51.98938 5.07443 6997 ft 275 kts 154°
2026-05-04 00:50 51.97279 5.08993 6997 ft 275 kts 154°
2026-05-04 00:50 51.95641 5.10523 6997 ft 275 kts 154°
2026-05-04 00:50 51.93984 5.12071 6997 ft 275 kts 154°
2026-05-04 00:51 51.92279 5.13468 6997 ft 273 kts 160°
2026-05-04 00:51 51.90511 5.14570 6997 ft 272 kts 164°
2026-05-04 00:51 51.88726 5.15569 6997 ft 272 kts 165°
2026-05-04 00:51 51.86932 5.16569 6853 ft 274 kts 165°
2026-05-04 00:52 51.85141 5.17578 6756 ft 269 kts 165°
2026-05-04 00:52 51.83411 5.18557 6716 ft 257 kts 165°
2026-05-04 00:52 51.81721 5.19519 6646 ft 260 kts 165°
2026-05-04 00:52 51.79992 5.20506 6420 ft 267 kts 164°
2026-05-04 00:53 51.78211 5.21525 6147 ft 275 kts 163°
2026-05-04 00:53 51.76391 5.22568 5849 ft 278 kts 163°
2026-05-04 00:53 51.74573 5.23611 5549 ft 277 kts 162°
2026-05-04 00:53 51.72775 5.24642 5405 ft 269 kts 162°
2026-05-04 00:54 51.71130 5.25868 5308 ft 261 kts 147°
2026-05-04 00:54 51.69845 5.27845 5244 ft 251 kts 130°
2026-05-04 00:54 51.68853 5.30086 5172 ft 241 kts 122°
2026-05-04 00:54 51.68002 5.32369 5002 ft 235 kts 119°
2026-05-04 00:55 51.67184 5.34644 4757 ft 234 kts 119°
2026-05-04 00:55 51.66370 5.36893 4525 ft 231 kts 119°
2026-05-04 00:55 51.65562 5.39119 4290 ft 229 kts 119°
2026-05-04 00:55 51.64764 5.41318 4054 ft 226 kts 119°
2026-05-04 00:56 51.63951 5.43477 3813 ft 224 kts 122°
2026-05-04 00:56 51.63101 5.45529 3572 ft 222 kts 124°
2026-05-04 00:56 51.62226 5.47574 3323 ft 220 kts 124°
2026-05-04 00:56 51.61365 5.49593 3061 ft 219 kts 124°
2026-05-04 00:57 51.60254 5.51246 2856 ft 221 kts 152°
2026-05-04 00:57 51.58769 5.51713 2722 ft 218 kts 184°
2026-05-04 00:57 51.57363 5.50997 2596 ft 205 kts 206°
2026-05-04 00:57 51.56169 5.49924 2452 ft 189 kts 211°
2026-05-04 00:58 51.55125 5.48810 2258 ft 174 kts 214°
2026-05-04 00:58 51.54183 5.47753 2046 ft 158 kts 215°
2026-05-04 00:58 51.53303 5.46764 1814 ft 150 kts 215°
2026-05-04 00:58 51.52465 5.45821 1615 ft 144 kts 215°
2026-05-04 00:59 51.51662 5.44918 1428 ft 138 kts 215°
2026-05-04 00:59 51.50886 5.44045 1252 ft 135 kts 215°
2026-05-04 00:59 51.50127 5.43192 1081 ft 132 kts 215°
2026-05-04 00:59 51.50055 5.43111 1065 ft 132 kts 215°
2026-05-04 01:00 51.49860 5.42891 1021 ft 133 kts 215°
2026-05-04 01:00 51.49319 5.42284 913 ft 138 kts 215°
2026-05-04 01:01 51.49061 5.41994 860 ft 140 kts 215°
2026-05-04 01:01 51.48252 5.41086 650 ft 144 kts 215°
2026-05-04 01:01 51.47438 5.40173 445 ft 141 kts 215°
2026-05-04 01:01 51.46642 5.39283 250 ft 137 kts 215°
2026-05-04 01:02 51.45884 5.38423 101 ft 130 kts 215°
2026-05-04 01:02 51.45185 5.37649 82 ft 111 kts 214°
2026-05-04 01:02 51.44715 5.37112 82 ft 34 kts 216°
2026-05-04 01:02 51.44593 5.36960 82 ft 10 kts 168°
2026-05-04 01:03 51.44588 5.37033 82 ft 15 kts 32°
2026-05-04 01:03 51.44681 5.37093 82 ft 13 kts 21°
2026-05-04 01:03 51.44741 5.37077 82 ft 6 kts 315°
2026-05-04 01:03 51.44755 5.37055 82 ft 0 kts 315°
2026-05-04 01:04 51.44760 5.37047 82 ft 5 kts 315°
2026-05-04 01:04 51.44820 5.36978 82 ft 16 kts 351°
2026-05-04 01:04 51.44929 5.37076 82 ft 23 kts 48°
2026-05-04 01:04 51.45036 5.37199 82 ft 0 kts 36°
2026-05-04 01:05 51.45054 5.37220 82 ft 7 kts 36°
2026-05-04 01:05 51.45118 5.37293 82 ft 15 kts 37°
2026-05-04 01:05 51.45219 5.37411 82 ft 17 kts 22°
2026-05-04 01:06 51.45296 5.37366 82 ft 11 kts 315°
2026-05-04 01:06 51.45360 5.37269 82 ft 15 kts 356°
2026-05-04 01:06 51.45404 5.37302 82 ft 10 kts 34°
2026-05-04 01:06 51.45437 5.37353 82 ft 0 kts 45°
2026-05-04 01:07 51.45445 5.37359 82 ft 5 kts 20°
2026-05-04 01:07 51.45464 5.37368 82 ft 7 kts 16°
2026-05-04 01:07 51.45499 5.37339 82 ft 6 kts 303°
2026-05-04 01:07 51.45501 5.37334 82 ft 0 kts 303°